Location: Manderson
(44.2693°N, 107.9639°W)
Time: 16:25:01
(UTC+00:00)

N. Korean satellite - Pass Details

Date: 30 January 2022
Orbit: 438 x 478 km, 97.3° (Epoch: 21 May)

Event Time Altitude Azimuth Distance (km) Brightness Sun altitude
Rises 11:43:58 0° 24° (NNE) 2,634 10.6 -30.2°
Reaches altitude 10° 11:46:22 10° 38° (NE) 1,739 9.8 -29.7°
Maximum altitude 11:49:29 24° 95° (E) 1,074 8.9 -29.2°
Drops below altitude 10° 11:52:33 10° 151° (SSE) 1,711 9.6 -28.6°
Sets 11:54:53 0° 165° (SSE) 2,580 10.4 -28.2°
